Location: Vanderbilt Beach
(26.2700°N, 81.7900°W)
Time: 16:00:41
(UTC-05:00)

Hubble Space Telescope - Visible Passes

Search period start: 30 November 2023 00:00
Search period end: 10 December 2023 00:00
Orbit: 519 x 523 km, 28.5° (Epoch: 30 November)

Date Brightness Start Highest point End Pass type
(mag) Time Alt. Az. Time Alt. Az. Time Alt. Az.
30 Nov 0.7 18:15:05 10° WNW 18:19:05 66° N 18:22:24 14° E visible
30 Nov 3.1 19:55:55 10° W 19:57:24 21° W 19:57:24 21° W visible
01 Dec 0.7 17:58:45 10° WNW 18:02:45 70° N 18:06:46 10° E visible
01 Dec 2.2 19:39:36 10° W 19:42:14 35° WSW 19:42:14 35° WSW visible
02 Dec 1.5 19:23:17 10° W 19:27:07 44° SSW 19:27:10 44° SSW visible
03 Dec 1.9 19:06:59 10° W 19:10:42 37° SSW 19:12:13 26° SSE visible
04 Dec 2.3 18:50:41 10° W 18:54:16 31° SSW 18:57:26 12° SE visible
05 Dec 2.7 18:34:24 10° W 18:37:48 26° SSW 18:41:11 10° SSE visible
06 Dec 3.1 18:18:09 10° WSW 18:21:18 22° SSW 18:24:28 10° SSE visible
07 Dec 3.4 18:01:58 10° WSW 18:04:47 18° SSW 18:07:38 10° SSE visible
